Regional Weather Roundup
Issued by NWS

Home | Current Version | Previous Version | Graphics & Text | Print | Product List | Glossary On
Versions: 1 2 3 4 5 6 7 8 9 10 11 12 13 14 15 16 17 18 19 20 21 22 23 24 25 26 27 28 29 30 31 32 33 34 35 36 37 38 39 40 41 42 43 44 45 46 47 48 49 50
000
ASUS43 KMPX 210601
RWRMN
WEATHER ROUNDUP FOR MINNESOTA
NATIONAL WEATHER SERVICE TWIN CITIES/CHANHASSEN MN
100 AM CDT FRI JUL 21 2017


NOTE: "FAIR" INDICATES FEW OR NO CLOUDS BELOW 12,000 FEET WITH NO
SIGNIFICANT WEATHER AND/OR OBSTRUCTIONS TO VISIBILITY. N/A MEANS
CURRENT SKY AND/OR WEATHER CONDITIONS ARE NOT AVAILABLE.

MNZ060>063-068>070-210700-
   Twin Cities Metro

CITY           SKY/WX    TMP DP  RH WIND       PRES   REMARKS
TWIN CITIES    PTCLDY    75  68  78 S6        29.96R
6HR MIN TEMP:  75; 6HR MAX TEMP:  88;

ST PAUL        PTCLDY    70  70 100 S3        29.95S
CRYSTAL        PTCLDY    66  61  84 CALM      29.94R
BLAINE         CLEAR     70  70 100 CALM      29.95S
LAKEVILLE        N/A     64  64 100 S5        29.97R FOG
EDEN PRAIRIE   CLEAR     71  68  90 W3        29.95R
6HR MIN TEMP:  69; 6HR MAX TEMP:  86;

SOUTH ST PAUL  CLEAR     70  70  98 CALM      29.95S
LAKE ELMO      FAIR      68  66  94 CALM      29.97S
$$
MNZ001>005-007-008-013>017-022>024-027-028-210700-
   Northwest Minnesota

CITY           SKY/WX    TMP DP  RH WIND       PRES   REMARKS
BEMIDJI        CLEAR     65  60  84 SE6       29.95S
HALLOCK        CLOUDY    68  63  83 E8        29.86F
ROSEAU         MOCLDY    64  61  88 CALM      29.93F
WARROAD        CLOUDY    66  63  88 CALM      29.94F
CROOKSTON      PTCLDY    72  61  68 E7        29.89S
FOSSTON        CLEAR     66  63  88 SE7       29.93F
DETROIT LAKES  CLOUDY    70  66  88 S6        29.94F
MOORHEAD       CLOUDY    73  66  78 S8        29.91S
PARK RAPIDS    MOCLDY    70  63  78 CALM      29.96S
MAHNOMEN       FAIR      69  65  87 E6        29.92S
$$
MNZ006-009>011-018-025>026-210700-
   North Central Minnesota

CITY           SKY/WX    TMP DP  RH WIND       PRES   REMARKS
BAUDETTE       MOCLDY    61  59  93 NE3       29.94F
FLAG ISLAND    CLOUDY    66  63  88 CALM      29.93F FOG
INTL FALLS     PTCLDY    57  54  89 CALM      29.96F
6HR MIN TEMP:  53; 6HR MAX TEMP:  74;

WASKISH        PTCLDY    61  55  82 E5        29.95F
BIG FORK       CLEAR     57  55  94 CALM      29.97F
LONGVILLE      CLEAR     63  61  94 CALM      29.96F FOG
GRAND RAPIDS   CLEAR     61  60  97 S3        29.99F
CRANE LAKE     CLEAR     52  52 100 CALM      29.99S
ORR            PTCLDY    55  54  94 CALM      29.96S
COOK           CLEAR     57  57 100 CALM      29.98F
WALKER         FAIR      61  60  96 CALM      29.96S
$$
MNZ012-019>021-037-210700-
   Northeast Minnesota

CITY           SKY/WX    TMP DP  RH WIND       PRES   REMARKS
DULUTH         CLEAR     64  61  90 CALM      29.97F
6HR MIN TEMP:  63; 6HR MAX TEMP:  82;

ELY            CLEAR     57  55  94 CALM      29.98F
HIBBING        CLOUDY    56  56 100 CALM      29.97F
EVELETH        CLEAR     58  55  89 CALM      29.99S
DULUTH HARBOR  CLEAR     72  66  83 S5        29.95F
TWO HARBORS    CLEAR     70  61  73 NW5       29.95F
SILVER BAY     PTCLDY    59  57  94 CALM      29.95F
GRAND MARAIS     N/A     61  54  77 CALM      29.94R
G MARAIS ARPRT CLEAR     57  46  67 CALM      30.00S
$$
MNZ029>031-032-039>041-046>048-054>057-064-210700-
   West Central Minnesota

CITY           SKY/WX    TMP DP  RH WIND       PRES   REMARKS
FERGUS FALLS   CLOUDY    72  70  94 SE3       29.93S
WHEATON        MOCLDY    70  64  83 SE7       29.94F
MORRIS         CLOUDY    68  66  94 SE7       29.94F
ALEXANDRIA     CLOUDY    70  67  90 SE5       29.98S
ELBOW LAKE     FAIR      69  68  95 E6        29.96S
WADENA         CLOUDY    64  64 100 CALM      29.95S
GLENWOOD       CLOUDY    66  66 100 S5        29.98S FOG
APPLETON       CLOUDY    70  66  88 E3        29.94F
BENSON         CLOUDY    66  64  94 E3        29.98S FOG
ORTONVILLE     CLOUDY    70  66  88 E6        29.94S
MADISON        CLOUDY    68  68 100 NE5       29.95R
WILLMAR        FAIR      66  66 100 NE3       29.98S
$$
MNZ033>034-036-042>043-049>051-058-059-210700-
   Central Minnesota

CITY           SKY/WX    TMP DP  RH WIND       PRES   REMARKS
ST CLOUD       PTCLDY    65  65 100 CALM      29.95F
6HR MIN TEMP:  63; 6HR MAX TEMP:  84;

SAUK CENTRE    FAIR      64  63  99 CALM      29.97S FOG
PAYNESVILLE    CLOUDY    63  62  97 CALM      29.99R FOG
AITKIN           N/A     61  59  94 CALM      29.95F FOG
PINE RIVER     MOCLDY    64  64 100 CALM      29.99F
BRAINERD       PTCLDY    66  64  93 CALM      29.96F FOG
STAPLES        CLOUDY    66  64  94 CALM      29.96S
LONG PRAIRIE   FAIR      64  64 100 S3        29.98R
LITTLE FALLS   FOG       63  63 100 CALM      29.96S VSB 3/4
LITCHFIELD     MOCLDY    70  70 100 CALM      29.98R
BUFFALO        CLEAR     66  62  89 CALM      29.98R
MAPLE LAKE     FOG       64  63  97 CALM      29.98R VSB 1/2
HUTCHINSON     CLOUDY    65  65  98 CALM      29.98S FOG
$$
MNZ037-044-045-052-053-210700-
   East Central Minnesota

CITY           SKY/WX    TMP DP  RH WIND       PRES   REMARKS
PRINCETON      CLEAR     66  64  94 CALM      29.95F
MORA             N/A     64  64 100 CALM      29.98F FOG
CAMBRIDGE      PTCLDY    68  63  83 CALM      29.94F
RUSH CITY      FOG       64  63  96 CALM      29.96F VSB 1
MOOSE LAKE     MOCLDY    61  59  94 CALM      29.95F FOG
HINCKLEY       FAIR      63  63 100 CALM      29.96F
CLOQUET        CLOUDY    66  61  82 CALM      29.97F
MCGREGOR       MOCLDY    63  61  94 CALM      29.97F
$$
MNZ071>073-080-081-089-090-097-098-210700-
   Southwest Minnesota

CITY           SKY/WX    TMP DP  RH WIND       PRES   REMARKS
MONTEVIDEO     PTCLDY    66  64  94 E3        29.96R
GRANITE FALLS  PTCLDY    70  68  93 NE3       29.97R
CANBY          PTCLDY    67  66  95 CALM      29.95S
MARSHALL       CLOUDY    72  70  93 S6        29.95S
REDWOOD FALLS  CLOUDY    70  68  93 SE6       29.94F
OLIVIA         PTCLDY    68  64  88 CALM      29.95S
PIPESTONE      CLEAR     73  70  88 E5        29.96S
WINDOM         CLEAR     72  70  94 E5        29.97S
WORTHINGTON    CLEAR     71  70  96 E5        29.97S
JACKSON        CLEAR     72  72 100 CALM      29.98S FOG
TRACY          CLOUDY    71  70  97 CALM      29.96S
SLAYTON        CLEAR     71  68  92 SE5       29.98S
$$
MNZ065>067-074>077-082>085-091>093-210700-
   South Central Minnesota

CITY           SKY/WX    TMP DP  RH WIND       PRES   REMARKS
MANKATO        CLEAR     70  69  97 SE8       29.97S
NEW ULM        CLEAR     70  66  88 SE6       29.95F
ST JAMES       CLEAR     70  68  94 E3        29.98R
FAIRMONT       CLOUDY    72  71  97 E5        29.96F
GLENCOE        PTCLDY    69  69 100 CALM      29.96F
FARIBAULT      CLEAR     70  68  94 CALM      29.99R FOG
OWATONNA       CLOUDY    68  66  94 CALM      29.99S FOG
WASECA         CLOUDY    66  64  94 E6        29.99F
ALBERT LEA     CLOUDY    73  70  88 SE7       29.98S
$$
MNZ078>079-086>088-094>096-210700-
   Southeast Minnesota

CITY           SKY/WX    TMP DP  RH WIND       PRES   REMARKS
ROCHESTER      CLOUDY    67  67 100 S7        30.01R FOG
6HR MIN TEMP:  66; 6HR MAX TEMP:  81;

RED WING       CLEAR     66  64  94 CALM      29.95S
STANTON        CLEAR     66  64  94 S3        29.97R FOG
DODGE CENTER   FOG       64  64 100 CALM      30.01R VSB 3/4
WINONA         PTCLDY    70  68  94 CALM      29.98S
AUSTIN         CLOUDY    68  66  94 E3        30.00R
PRESTON        CLOUDY    69  67  93 S5        30.02R
$$
ABBREVIATIONS USED IN REMARKS
   TC - TEMPERATURES IN CELSIUS
  WCI - WIND CHILL INDEX
   HX - HEAT INDEX
  VSB - VISIBILITY
$$




USA.gov is the U.S. government's official web portal to all federal, state and local government web resources and services.